This is the latest recevied weather packets stored in our database for station/object ZL1CTS-13. If no packets are shown the sender has not sent any weather packets the latest 10 day(s).
| Time | Temp. | Humidity | Pressure | Rain* | Wind** | Luminosity | Snow |
|---|---|---|---|---|---|---|---|
| 1777776605 | 21.11° C | 64% | 1024.2 hPa | 0 mm | - | - | - |
| 1777776004 | 20° C | 65% | 1024.3 hPa | 0 mm | - | - | - |
| 1777775404 | 20° C | 65% | 1024.2 hPa | 0 mm | - | - | - |
| 1777774804 | 19.44° C | 64% | 1024.4 hPa | 0 mm | - | - | - |
| 1777774204 | 19.44° C | 66% | 1024.5 hPa | 0 mm | - | - | - |
| 1777773604 | 20° C | 64% | 1024.2 hPa | 0 mm | - | - | - |
| 1777773003 | 20° C | 65% | 1024.4 hPa | 0 mm | - | - | - |
| 1777772404 | 19.44° C | 65% | 1024.4 hPa | 0 mm | - | - | - |
| 1777771804 | 19.44° C | 67% | 1024.3 hPa | 0 mm | - | - | - |
| 1777771204 | 19.44° C | 64% | 1024.3 hPa | 0 mm | - | - | - |
| 1777770604 | 19.44° C | 64% | 1024.4 hPa | 0 mm | - | - | - |
| 1777770004 | 19.44° C | 66% | 1024.5 hPa | 0 mm | - | - | - |
| 1777769404 | 19.44° C | 66% | 1024.5 hPa | 0 mm | - | - | - |
| 1777768804 | 18.89° C | 65% | 1024.8 hPa | 0 mm | - | - | - |
| 1777768204 | 19.44° C | 67% | 1024.9 hPa | 0 mm | - | - | - |
| 1777767604 | 18.89° C | 69% | 1024.9 hPa | 0 mm | - | - | - |
| 1777767004 | 19.44° C | 69% | 1024.9 hPa | 0 mm | - | - | - |
| 1777766403 | 19.44° C | 70% | 1025.1 hPa | 0 mm | - | - | - |
| 1777765804 | 19.44° C | 70% | 1025.1 hPa | 0 mm | - | - | - |
| 1777765204 | 18.89° C | 71% | 1025.2 hPa | 0 mm | - | - | - |
| 1777764603 | 18.89° C | 70% | 1025.1 hPa | 0 mm | - | - | - |
| 1777764004 | 18.89° C | 73% | 1025.3 hPa | 0 mm | - | - | - |
| 1777763404 | 18.89° C | 71% | 1025.3 hPa | 0 mm | - | - | - |
| 1777762804 | 18.89° C | 72% | 1025.2 hPa | 0 mm | - | - | - |
| 1777762204 | 18.89° C | 72% | 1025.2 hPa | 0 mm | - | - | - |
* Rain latest hour (hover to see other rain measurements)
** Current wind speed in m/s (hover to see current wind gust speed)